FW9229 Weather Reports


Display with metric or nautical units.
time (UTC)temp
F
wind
direction
speed
MPH
gust
MPH
rain 1hr
in
rain 24hr
in
rain mn
in
humidity
%
barometer
mb
20260902182517 95 73 0.0 4.0 0.00 0.00 0.00 50 1014.6
20260902182024 96 0 0.0 4.0 0.00 0.00 0.00 49 1014.6
20260902181536 96 35 1.0 6.0 0.00 0.00 0.00 49 1014.9
20260902181022 96 90 1.0 8.0 0.00 0.00 0.00 48 1015.1
20260902180520 95 129 2.0 8.0 0.00 0.00 0.00 48 1015.2
20260902180037 95 102 2.0 7.0 0.00 0.00 0.00 49 1015.2
20260902175521 95 106 2.0 7.0 0.00 0.00 0.00 49 1015.3
20260902175020 94 0 1.0 5.0 0.00 0.00 0.00 52 1015.4
20260902174537 94 129 2.0 7.0 0.00 0.00 0.00 50 1015.5
20260902174018 94 156 2.0 7.0 0.00 0.00 0.00 49 1015.6
20260902173520 94 73 1.0 7.0 0.00 0.00 0.00 50 1015.6
20260902173040 95 0 2.0 9.0 0.00 0.00 0.00 49 1015.7
20260902172519 95 166 2.0 9.0 0.00 0.00 0.00 49 1015.8
20260902172025 94 0 0.0 4.0 0.00 0.00 0.00 52 1015.8
20260902171537 94 0 2.0 5.0 0.00 0.00 0.00 52 1015.8
20260902171023 94 123 1.0 5.0 0.00 0.00 0.00 53 1016.0
20260902170518 94 51 1.0 6.0 0.00 0.00 0.00 52 1016.0
20260902170041 92 43 1.0 6.0 0.00 0.00 0.00 55 1016.0
20260902165520 94 0 1.0 6.0 0.00 0.00 0.00 51 1016.1
20260902165020 94 131 1.0 6.0 0.00 0.00 0.00 53 1016.0
20260902164541 93 116 0.0 6.0 0.00 0.00 0.00 53 1015.9
20260902164019 92 133 0.0 6.0 0.00 0.00 0.00 55 1015.9
20260902163516 92 0 2.0 6.0 0.00 0.00 0.00 54 1016.1
20260902163035 92 0 0.0 4.0 0.00 0.00 0.00 54 1016.1
20260902162518 92 142 0.0 5.0 0.00 0.00 0.00 55 1016.1
20260902162020 92 62 2.0 5.0 0.00 0.00 0.00 57 1016.2
20260902161543 91 71 1.0 5.0 0.00 0.00 0.00 60 1016.2
20260902161018 91 173 1.0 6.0 0.00 0.00 0.00 58 1016.2
20260902160522 90 242 1.0 6.0 0.00 0.00 0.00 59 1016.2
20260902160037 90 0 0.0 6.0 0.00 0.00 0.00 60 1016.2
20260902155517 90 0 2.0 6.0 0.00 0.00 0.00 59 1016.2
20260902155020 91 83 1.0 4.0 0.00 0.00 0.00 60 1016.3
20260902154536 90 0 0.0 4.0 0.00 0.00 0.00 61 1016.3
20260902154017 89 0 1.0 5.0 0.00 0.00 0.00 62 1016.3
20260902153517 89 0 1.0 6.0 0.00 0.00 0.00 64 1016.3
20260902153038 88 0 1.0 6.0 0.00 0.00 0.00 65 1016.3
20260902152517 87 173 0.0 4.0 0.00 0.00 0.00 66 1016.2
20260902152020 87 195 0.0 6.0 0.00 0.00 0.00 66 1016.2
20260902151536 86 0 0.0 6.0 0.00 0.00 0.00 67 1016.2
20260902151018 86 81 0.0 4.0 0.00 0.00 0.00 68 1016.1
20260902150521 85 0 0.0 3.0 0.00 0.00 0.00 68 1016.2
20260902150037 85 116 0.0 3.0 0.00 0.00 0.00 69 1016.1
20260902145518 85 0 0.0 4.0 0.00 0.00 0.00 70 1016.0
20260902145023 85 73 1.0 4.0 0.00 0.00 0.00 70 1016.0
20260902144535 84 0 0.0 3.0 0.00 0.00 0.00 71 1016.0
20260902144019 84 0 0.0 3.0 0.00 0.00 0.00 71 1016.1
20260902143516 84 0 0.0 3.0 0.00 0.00 0.00 72 1016.1
20260902143041 83 0 0.0 5.0 0.00 0.00 0.00 73 1015.9
20260902142520 83 0 0.0 5.0 0.00 0.00 0.00 74 1016.0
20260902142020 83 0 0.0 4.0 0.00 0.00 0.00 74 1016.0
20260902141538 83 199 0.0 4.0 0.00 0.00 0.00 74 1016.1
20260902141022 82 0 1.0 4.0 0.00 0.00 0.00 74 1016.1
20260902140518 82 223 1.0 4.0 0.00 0.00 0.00 74 1016.0
20260902140041 83 0 0.0 3.0 0.00 0.00 0.00 74 1016.0
20260902135520 83 0 0.0 3.0 0.00 0.00 0.00 73 1016.0
20260902135019 83 0 0.0 3.0 0.00 0.00 0.00 73 1015.9
20260902134540 82 0 0.0 5.0 0.00 0.00 0.00 73 1015.9
20260902134018 82 205 0.0 5.0 0.00 0.00 0.00 73 1015.9
20260902133518 82 0 0.0 3.0 0.00 0.00 0.00 73 1015.9
20260902133035 82 136 0.0 4.0 0.00 0.00 0.00 73 1015.9
20260902132524 82 0 0.0 4.0 0.00 0.00 0.00 73 1015.9
20260902132018 82 132 0.0 3.0 0.00 0.00 0.00 72 1016.0
20260902131539 82 0 0.0 3.0 0.00 0.00 0.00 73 1015.9
20260902131020 81 0 0.0 5.0 0.00 0.00 0.00 73 1016.0
20260902130520 81 0 0.0 5.0 0.00 0.00 0.00 73 1015.9
20260902130041 81 198 0.0 3.0 0.00 0.00 0.00 73 1015.8
20260902125517 81 201 0.0 4.0 0.00 0.00 0.00 73 1015.7
20260902125019 81 160 0.0 4.0 0.00 0.00 0.00 74 1015.7
20260902124543 81 0 0.0 3.0 0.00 0.00 0.00 74 1015.6
20260902124017 80 0 0.0 2.0 0.00 0.00 0.00 75 1015.6
20260902123521 80 0 0.0 0.0 0.00 0.00 0.00 74 1015.5
20260902123040 80 0 0.0 1.0 0.00 0.00 0.00 74 1015.4
20260902122521 80 0 0.0 1.0 0.00 0.00 0.00 74 1015.4
20260902122020 80 0 0.0 2.0 0.00 0.00 0.00 74 1015.4
20260902121539 80 0 0.0 2.0 0.00 0.00 0.00 74 1015.4
20260902121019 80 0 0.0 0.0 0.00 0.00 0.00 74 1015.3
20260902120518 80 0 0.0 2.0 0.00 0.00 0.00 74 1015.3
20260902120035 80 0 0.0 2.0 0.00 0.00 0.00 74 1015.3
20260902115519 80 0 0.0 2.0 0.00 0.00 0.00 73 1015.3
20260902115019 80 0 0.0 2.0 0.00 0.00 0.00 73 1015.4
20260902114538 80 0 0.0 1.0 0.00 0.00 0.00 73 1015.5
20260902114017 80 0 0.0 1.0 0.00 0.00 0.00 73 1015.4
20260902113518 80 0 0.0 0.0 0.00 0.00 0.00 74 1015.5
20260902113037 80 0 0.0 0.0 0.00 0.00 0.00 74 1015.5
20260902112520 80 0 0.0 0.0 0.00 0.00 0.00 74 1015.5
20260902112020 80 0 0.0 0.0 0.00 0.00 0.00 74 1015.5
20260902111545 80 0 0.0 0.0 0.00 0.00 0.00 73 1015.4
20260902111023 80 0 0.0 0.0 0.00 0.00 0.00 73 1015.4
20260902110518 80 0 0.0 0.0 0.00 0.00 0.00 73 1015.5
20260902110037 80 0 0.0 0.0 0.00 0.00 0.00 72 1015.4
20260902105521 81 0 0.0 0.0 0.00 0.00 0.00 72 1015.4
20260902105019 81 0 0.0 0.0 0.00 0.00 0.00 71 1015.4
20260902104542 81 0 0.0 0.0 0.00 0.00 0.00 72 1015.4
20260902104020 81 0 0.0 0.0 0.00 0.00 0.00 71 1015.3
20260902103518 81 0 0.0 1.0 0.00 0.00 0.00 71 1015.4
20260902103039 81 0 0.0 1.0 0.00 0.00 0.00 71 1015.4
20260902102519 81 0 0.0 2.0 0.00 0.00 0.00 71 1015.4
20260902102020 81 0 0.0 2.0 0.00 0.00 0.00 71 1015.4
20260902101540 81 0 0.0 1.0 0.00 0.00 0.00 70 1015.4
20260902101017 81 0 0.0 3.0 0.00 0.00 0.00 70 1015.4
20260902100518 81 0 0.0 3.0 0.00 0.00 0.00 70 1015.4
20260902100035 81 0 0.0 0.0 0.00 0.00 0.00 70 1015.4
20260902095519 82 0 0.0 0.0 0.00 0.00 0.00 70 1015.3
20260902095019 82 0 0.0 1.0 0.00 0.00 0.00 69 1015.3
20260902094545 82 0 0.0 4.0 0.00 0.00 0.00 69 1015.4
20260902094018 82 0 0.0 4.0 0.00 0.00 0.00 69 1015.3
20260902093517 82 0 0.0 4.0 0.00 0.00 0.00 69 1015.2
20260902093037 82 214 0.0 4.0 0.00 0.00 0.00 69 1015.3
20260902092519 82 0 0.0 4.0 0.00 0.00 0.00 69 1015.2
20260902092023 82 204 0.0 3.0 0.00 0.00 0.00 69 1015.3
20260902091543 82 0 0.0 0.0 0.00 0.00 0.00 69 1015.2
20260902091018 82 0 0.0 4.0 0.00 0.00 0.00 68 1015.2
20260902090516 82 0 0.0 4.0 0.00 0.00 0.00 68 1015.2
20260902090035 82 197 0.0 0.0 0.00 0.00 0.00 68 1015.3
20260902085519 82 0 0.0 0.0 0.00 0.00 0.00 68 1015.1
20260902085018 83 0 0.0 1.0 0.00 0.00 0.00 67 1015.1
20260902084536 83 0 0.0 1.0 0.00 0.00 0.00 67 1015.0
20260902084020 83 0 0.0 1.0 0.00 0.00 0.00 66 1015.1
20260902083520 83 0 0.0 4.0 0.00 0.00 0.00 66 1015.1
20260902083036 84 0 0.0 5.0 0.00 0.00 0.00 65 1015.0
20260902082517 84 207 0.0 5.0 0.00 0.00 0.00 65 1015.0
20260902082019 84 0 1.0 5.0 0.00 0.00 0.00 65 1015.0
20260902081547 84 0 0.0 5.0 0.00 0.00 0.00 65 1015.0
20260902081018 84 0 1.0 5.0 0.00 0.00 0.00 65 1015.0
20260902080519 84 0 1.0 7.0 0.00 0.00 0.00 64 1015.0
20260902080036 84 187 1.0 7.0 0.00 0.00 0.00 64 1015.0
20260902075519 84 0 1.0 5.0 0.00 0.00 0.00 64 1015.0
20260902075017 84 0 2.0 5.0 0.00 0.00 0.00 64 1015.1
20260902074537 84 206 0.0 5.0 0.00 0.00 0.00 64 1015.1
20260902074019 85 0 0.0 5.0 0.00 0.00 0.00 63 1015.1
20260902073520 85 0 0.0 5.0 0.00 0.00 0.00 63 1015.1
20260902073036 85 171 1.0 9.0 0.00 0.00 0.00 63 1015.1
20260902072516 85 0 3.0 9.0 0.00 0.00 0.00 63 1015.1
20260902072018 85 209 1.0 7.0 0.00 0.00 0.00 63 1015.2
20260902071535 85 0 2.0 7.0 0.00 0.00 0.00 63 1015.1
20260902071018 85 0 0.0 5.0 0.00 0.00 0.00 63 1015.2
20260902070520 85 208 1.0 6.0 0.00 0.00 0.00 63 1015.2
20260902070036 85 0 3.0 7.0 0.00 0.00 0.00 63 1015.3
20260902065521 85 0 3.0 7.0 0.00 0.00 0.00 63 1015.3
20260902065017 85 215 3.0 8.0 0.00 0.00 0.00 64 1015.3
20260902064539 85 212 1.0 8.0 0.00 0.00 0.00 64 1015.3
20260902064019 85 0 1.0 7.0 0.00 0.00 0.00 64 1015.2
20260902063520 85 217 3.0 10.0 0.00 0.00 0.00 64 1015.3
20260902063034 85 183 4.0 10.0 0.00 0.00 0.00 64 1015.3
20260902062519 86 187 3.0 8.0 0.00 0.00 0.00 64 1015.3
20260902062019 86 193 2.0 9.0 0.00 0.00 0.00 64 1015.2
20260902061544 86 179 3.0 9.0 0.00 0.00 0.00 64 1015.3
20260902061021 86 208 3.0 8.0 0.00 0.00 0.00 64 1015.2
20260902060517 86 199 1.0 11.0 0.00 0.00 0.00 64 1015.2
20260902060038 86 196 2.0 11.0 0.00 0.00 0.00 64 1015.3
20260902055526 86 212 2.0 11.0 0.00 0.00 0.00 64 1015.3
20260902055020 86 193 1.0 11.0 0.00 0.00 0.00 63 1015.3
20260902054538 86 180 4.0 9.0 0.00 0.00 0.00 63 1015.3
20260902054018 86 0 2.0 8.0 0.00 0.00 0.00 63 1015.3
20260902053519 87 161 2.0 14.0 0.00 0.00 0.00 63 1015.3
20260902053040 87 204 5.0 14.0 0.00 0.00 0.00 62 1015.3
20260902052522 87 207 3.0 11.0 0.00 0.00 0.00 62 1015.2
20260902052020 87 191 3.0 11.0 0.00 0.00 0.00 62 1015.3
20260902051538 87 200 3.0 10.0 0.00 0.00 0.00 62 1015.3
20260902051021 87 191 2.0 10.0 0.00 0.00 0.00 62 1015.3
20260902050519 87 142 2.0 9.0 0.00 0.00 0.00 61 1015.3
20260902050040 87 175 3.0 10.0 0.00 0.00 0.00 61 1015.2
20260902045519 88 241 1.0 10.0 0.00 0.00 0.00 61 1015.3
20260902045019 88 202 5.0 10.0 0.00 0.00 0.00 60 1015.3
20260902044538 88 198 3.0 12.0 0.00 0.00 0.00 60 1015.2
20260902044018 88 175 2.0 12.0 0.00 0.00 0.00 59 1015.3
20260902043519 88 112 4.0 10.0 0.00 0.00 0.00 59 1015.3
20260902043036 89 0 3.0 10.0 0.00 0.00 0.00 58 1015.3
20260902042518 89 227 4.0 10.0 0.00 0.00 0.00 57 1015.3
20260902042018 89 204 3.0 11.0 0.00 0.00 0.00 56 1015.1
20260902041539 90 153 4.0 11.0 0.00 0.00 0.00 55 1015.2
20260902041017 90 216 2.0 11.0 0.00 0.00 0.00 54 1015.0
20260902040519 90 227 4.0 11.0 0.00 0.00 0.00 54 1014.9
20260902040036 90 235 1.0 6.0 0.00 0.00 0.00 53 1014.8
20260902035518 90 130 0.0 2.0 0.00 0.00 0.00 55 1014.7
20260902035019 90 0 0.0 0.0 0.00 0.00 0.00 54 1014.7
20260902034536 90 0 0.0 0.0 0.00 0.00 0.00 54 1014.6
20260902034019 90 0 0.0 0.0 0.00 0.00 0.00 54 1014.6
20260902033517 90 0 0.0 0.0 0.00 0.00 0.00 54 1014.6
20260902033043 90 0 0.0 0.0 0.00 0.00 0.00 54 1014.6
20260902032522 90 0 0.0 1.0 0.00 0.00 0.00 54 1014.6
20260902032023 90 0 0.0 1.0 0.00 0.00 0.00 53 1014.6
20260902031538 91 0 0.0 1.0 0.00 0.00 0.00 53 1014.5
20260902031019 91 0 0.0 1.0 0.00 0.00 0.00 52 1014.5
20260902030519 91 0 0.0 1.0 0.00 0.00 0.00 52 1014.3
20260902030035 91 0 0.0 2.0 0.00 0.00 0.00 52 1014.4
20260902025518 91 0 0.0 5.0 0.00 0.00 0.00 51 1014.4
20260902025023 91 130 0.0 5.0 0.00 0.00 0.00 51 1014.3
20260902024537 92 151 0.0 7.0 0.00 0.00 0.00 51 1014.2
20260902024019 91 232 0.0 7.0 0.00 0.00 0.00 52 1014.2
20260902023519 91 0 0.0 2.0 0.00 0.00 0.00 52 1014.1
20260902023038 91 0 0.0 2.0 0.00 0.00 0.00 52 1014.0
20260902022517 91 0 0.0 2.0 0.00 0.00 0.00 52 1013.9
20260902022019 91 0 0.0 2.0 0.00 0.00 0.00 51 1013.8
20260902021546 91 0 0.0 2.0 0.00 0.00 0.00 52 1013.7
20260902021021 91 0 0.0 0.0 0.00 0.00 0.00 51 1013.7
20260902020520 91 0 0.0 1.0 0.00 0.00 0.00 51 1013.6
20260902020037 92 0 0.0 4.0 0.00 0.00 0.00 52 1013.6
20260902015517 92 0 0.0 4.0 0.00 0.00 0.00 52 1013.5
20260902015018 91 0 0.0 0.0 0.00 0.00 0.00 50 1013.4
20260902014539 92 0 0.0 0.0 0.00 0.00 0.00 52 1013.4
20260902014023 92 0 0.0 1.0 0.00 0.00 0.00 50 1013.2
20260902013519 92 0 0.0 1.0 0.00 0.00 0.00 51 1013.1
20260902013037 92 0 0.0 0.0 0.00 0.00 0.00 51 1013.1
20260902012519 92 0 0.0 0.0 0.00 0.00 0.00 53 1013.1
20260902012018 92 0 0.0 1.0 0.00 0.00 0.00 52 1013.0
20260902011539 93 0 0.0 2.0 0.00 0.00 0.00 54 1013.0
20260902011018 93 0 0.0 2.0 0.00 0.00 0.00 47 1013.0
20260902010518 93 0 0.0 1.0 0.00 0.00 0.00 46 1013.0
20260902010053 94 0 0.0 2.0 0.00 0.00 0.00 46 1013.1
20260902005520 94 0 0.0 2.0 0.00 0.00 0.00 45 1013.1
20260902005018 94 0 0.0 2.0 0.00 0.00 0.00 45 1013.1
20260902004544 94 0 0.0 2.0 0.00 0.00 0.00 45 1013.2
20260902004023 95 0 0.0 2.0 0.00 0.00 0.00 44 1013.1
20260902003519 95 0 0.0 3.0 0.00 0.00 0.00 44 1013.2
20260902003038 95 0 0.0 3.0 0.00 0.00 0.00 44 1013.2
20260902002520 95 0 0.0 1.0 0.00 0.00 0.00 44 1013.2
20260902002021 96 0 0.0 4.0 0.00 0.00 0.00 44 1013.2
20260902001535 96 0 0.0 7.0 0.00 0.00 0.00 44 1013.2
20260902001020 96 0 0.0 7.0 0.00 0.00 0.00 44 1013.3
20260902000519 96 0 0.0 6.0 0.00 0.00 0.00 43 1013.3
20260902000050 96 112 0.0 6.0 0.00 0.00 0.00 43 1013.5
20260901235520 96 0 1.0 4.0 0.00 0.00 0.00 43 1013.5
20260901235019 97 0 0.0 4.0 0.00 0.00 0.00 42 1013.4
20260901234603 97 0 0.0 3.0 0.00 0.00 0.00 42 1013.4
20260901234017 97 0 0.0 7.0 0.00 0.00 0.00 42 1013.5
20260901233520 97 0 1.0 7.0 0.00 0.00 0.00 42 1013.5
20260901233037 97 85 1.0 6.0 0.00 0.00 0.00 42 1013.6
20260901232517 98 0 0.0 3.0 0.00 0.00 0.00 41 1013.7
20260901232020 98 0 0.0 4.0 0.00 0.00 0.00 40 1013.6
20260901231546 98 0 0.0 5.0 0.00 0.00 0.00 40 1013.7
20260901231020 98 162 1.0 5.0 0.00 0.00 0.00 40 1013.7
20260901230520 98 132 0.0 4.0 0.00 0.00 0.00 42 1013.7
20260901230054 97 127 1.0 9.0 0.00 0.00 0.00 42 1013.8
20260901225518 97 139 2.0 9.0 0.00 0.00 0.00 42 1013.9
20260901225019 97 213 3.0 8.0 0.00 0.00 0.00 41 1013.8
20260901224538 98 134 0.0 8.0 0.00 0.00 0.00 40 1013.8
20260901224015 98 203 2.0 8.0 0.00 0.00 0.00 40 1013.8
20260901223516 98 118 1.0 12.0 0.00 0.00 0.00 40 1013.8
20260901223056 98 132 1.0 12.0 0.00 0.00 0.00 40 1013.8
20260901222520 99 88 1.0 11.0 0.00 0.00 0.00 39 1013.8
20260901222022 99 177 3.0 11.0 0.00 0.00 0.00 39 1013.8
20260901221539 101 183 1.0 6.0 0.00 0.00 0.00 38 1013.8
20260901221020 101 118 0.0 5.0 0.00 0.00 0.00 38 1013.8
20260901220518 100 0 0.0 3.0 0.00 0.00 0.00 38 1013.8
20260901220037 100 0 0.0 6.0 0.00 0.00 0.00 38 1013.8
20260901215519 101 131 1.0 6.0 0.00 0.00 0.00 37 1013.9
20260901215021 101 142 1.0 5.0 0.00 0.00 0.00 37 1014.0
20260901214538 100 81 0.0 4.0 0.00 0.00 0.00 39 1014.1
20260901214024 101 82 0.0 9.0 0.00 0.00 0.00 38 1014.1
20260901213520 102 82 2.0 9.0 0.00 0.00 0.00 38 1014.1
20260901213042 101 113 0.0 4.0 0.00 0.00 0.00 38 1014.2
20260901212517 99 0 1.0 4.0 0.00 0.00 0.00 40 1014.2
20260901212017 100 0 0.0 8.0 0.00 0.00 0.00 39 1014.2
20260901211545 102 0 1.0 8.0 0.00 0.00 0.00 38 1014.3
20260901211019 103 172 1.0 4.0 0.00 0.00 0.00 37 1014.4
20260901210524 103 0 1.0 4.0 0.00 0.00 0.00 38 1014.5
20260901210035 101 173 1.0 4.0 0.00 0.00 0.00 40 1014.5
20260901205518 100 0 2.0 5.0 0.00 0.00 0.00 39 1014.3
20260901205018 101 172 1.0 5.0 0.00 0.00 0.00 38 1014.5
20260901204543 101 102 1.0 4.0 0.00 0.00 0.00 37 1014.6
20260901204017 102 101 2.0 4.0 0.00 0.00 0.00 37 1014.5
20260901203522 102 101 0.0 4.0 0.00 0.00 0.00 37 1014.4
20260901203037 102 121 2.0 4.0 0.00 0.00 0.00 37 1014.6
20260901202516 102 129 1.0 4.0 0.00 0.00 0.00 37 1014.7
20260901202018 101 0 1.0 7.0 0.00 0.00 0.00 37 1014.7
20260901201537 101 118 1.0 7.0 0.00 0.00 0.00 38 1014.8
20260901201020 101 116 1.0 4.0 0.00 0.00 0.00 39 1014.9
20260901200522 101 88 1.0 7.0 0.00 0.00 0.00 38 1014.8
20260901200052 100 110 1.0 7.0 0.00 0.00 0.00 38 1015.0
20260901195520 99 135 2.0 7.0 0.00 0.00 0.00 39 1015.0
20260901195020 99 215 1.0 7.0 0.00 0.00 0.00 39 1014.9
20260901194549 100 109 1.0 6.0 0.00 0.00 0.00 38 1014.9
20260901194017 100 145 1.0 5.0 0.00 0.00 0.00 37 1015.1
20260901193516 100 106 1.0 6.0 0.00 0.00 0.00 38 1015.1
20260901193036 100 0 2.0 9.0 0.00 0.00 0.00 39 1015.3
20260901192518 99 0 2.0 9.0 0.00 0.00 0.00 39 1015.3
20260901192020 100 144 2.0 7.0 0.00 0.00 0.00 38 1015.4
20260901191536 99 0 1.0 5.0 0.00 0.00 0.00 40 1015.3
20260901191026 98 114 1.0 5.0 0.00 0.00 0.00 41 1015.3
20260901190518 98 0 0.0 5.0 0.00 0.00 0.00 41 1015.3
20260901190035 99 85 1.0 5.0 0.00 0.00 0.00 41 1015.4
20260901185520 98 0 0.0 4.0 0.00 0.00 0.00 42 1015.6
20260901185020 97 122 1.0 6.0 0.00 0.00 0.00 43 1015.7
20260901184538 97 106 1.0 6.0 0.00 0.00 0.00 42 1015.8
20260901184018 98 162 0.0 5.0 0.00 0.00 0.00 41 1015.8
20260901183518 98 129 1.0 5.0 0.00 0.00 0.00 43 1016.0
20260901183043 98 222 1.0 4.0 0.00 0.00 0.00 44 1016.0